Dewpoint
23 23 25 26 26 25 25 25 25 24 24 25 25 26 26 27 27 27 28 28 26 25 25 25 25 25 26 28 29 30 30 31 32 32 33 33 34 34 34 35 35 35 35 35 35 35 36 36 36 36 36 36 37 37 37 37 37 37 37 37 37 38 38 38 38 38 38 38 38 38 37 37 37 37 37 37 38 38 38 38 38 39 39 40 40 41
23 24 25 26 26 25 25 25 25 25 24 25 26 26 26 26 26 26 28 28 27 27 26 25 25 24 25 26 28 29 30 31 32 32 32 33 33 34 34 34 35 35 35 35 35 35 35 35 35 36 36 36 36 37 37 37 37 37 37 37 37 37 37 37 37 37 37 37 37 37 37 37 37 37 37 37 38 38 38 38 38 39 39 40 40 41
24 24 25 25 25 25 24 24 24 25 25 26 27 27 26 26 26 25 25 26 27 28 27 26 24 24 24 26 28 29 30 31 31 32 32 33 33 33 34 34 34 34 34 34 34 35 35 35 35 35 36 36 36 36 36 36 36 36 36 36 36 36 36 36 36 36 36 37 36 36 36 36 37 37 37 37 38 38 37 38 38 38 39 40 40 41
26 24 24 25 25 25 25 25 25 26 27 27 27 27 26 26 26 25 25 25 26 27 27 26 25 24 24 25 28 29 30 31 31 32 32 32 33 33 33 33 34 34 34 34 34 34 34 35 35 35 35 36 36 36 36 36 36 35 35 35 35 35 35 35 35 35 35 36 36 35 36 36 36 37 37 37 37 37 37 38 38 38 39 39 40 41
25 25 25 25 25 25 25 25 26 27 28 27 27 26 26 26 25 25 25 25 25 25 25 25 25 24 24 25 27 29 30 31 31 32 32 32 32 32 33 33 33 33 33 33 34 34 34 34 34 35 35 35 35 35 35 35 35 35 35 34 35 35 35 35 35 35 35 35 35 35 36 36 36 36 37 37 37 37 37 38 38 38 38 39 40 40
25 25 26 25 25 25 25 25 26 26 27 26 26 26 26 26 26 25 24 24 24 25 25 25 25 25 25 25 27 29 30 30 31 31 32 32 32 32 32 32 32 32 33 33 33 33 33 34 34 34 35 35 35 35 35 35 34 34 34 34 34 34 35 35 35 35 35 35 35 35 35 35 36 36 36 36 36 37 37 37 38 38 38 39 39 40
25 26 26 26 25 25 25 25 25 25 25 24 24 24 24 25 25 26 26 26 25 25 25 25 26 26 26 26 27 28 29 30 30 30 31 31 31 31 31 32 32 32 32 32 32 33 33 33 34 34 34 34 34 34 34 34 34 34 34 34 34 34 34 34 34 34 35 35 35 35 35 35 35 35 35 35 36 36 37 37 37 38 38 38 38 39
25 26 26 25 25 24 24 24 24 25 25 24 23 23 23 23 24 25 28 28 28 27 26 25 25 25 26 26 27 27 28 28 28 28 28 29 29 30 30 31 31 32 32 32 32 32 33 33 33 34 34 34 34 34 34 34 34 34 34 34 34 34 34 34 34 34 34 35 35 35 35 35 35 35 35 35 35 36 36 37 37 37 38 38 38 38
25 24 24 25 25 24 23 23 24 25 25 24 24 23 23 23 23 24 25 26 27 27 25 25 24 25 25 26 27 27 27 27 26 26 26 26 27 28 29 30 30 31 31 32 32 32 32 33 33 33 33 34 34 34 33 33 33 33 33 33 33 33 34 34 34 34 34 35 35 35 35 35 35 35 35 35 35 35 36 36 37 37 37 38 38 38
25 24 23 24 24 24 23 23 23 25 26 25 25 24 23 23 22 22 23 23 25 26 25 25 24 24 25 26 27 27 26 27 27 27 28 27 27 28 28 29 29 30 31 31 31 32 32 32 32 33 33 33 33 33 33 33 33 33 33 33 33 33 33 33 34 34 34 34 34 34 34 34 34 34 34 35 35 35 35 35 36 37 37 37 37 38
24 24 23 23 23 23 23 23 23 24 26 25 24 24 23 23 23 22 22 23 23 24 24 25 25 25 24 25 25 25 25 24 25 26 27 28 28 28 28 28 28 29 30 30 31 31 31 32 32 32 32 32 32 32 32 32 32 32 32 33 33 33 33 33 33 33 33 34 34 34 34 34 34 34 34 34 35 35 35 35 35 36 36 37 37 37
23 23 23 23 23 23 24 24 24 25 25 24 23 22 22 23 23 23 23 23 23 23 24 25 25 26 26 25 24 24 23 23 23 23 24 25 26 26 25 25 26 27 28 28 29 30 30 30 31 31 31 31 31 31 31 31 32 32 32 32 32 33 33 33 33 33 33 33 33 33 34 34 34 34 34 34 34 34 35 35 35 35 35 36 36 37
23 23 23 23 23 23 23 23 23 23 23 22 21 21 21 22 23 24 24 23 23 24 24 25 25 26 26 25 24 23 23 22 22 22 23 23 23 23 23 23 23 24 25 25 26 27 28 29 30 30 30 30 30 31 31 31 31 32 32 32 32 32 32 32 33 33 33 33 33 33 33 33 34 34 34 34 34 34 34 34 34 35 35 35 36 36
23 24 23 23 23 23 23 23 22 22 21 21 22 22 23 23 23 24 23 23 24 25 25 25 25 25 25 24 24 23 23 22 22 22 22 22 23 23 23 23 23 23 24 24 24 25 28 28 28 28 29 29 29 30 30 31 31 32 32 32 32 32 32 32 32 33 33 33 33 33 33 33 33 33 34 34 34 34 34 34 34 34 34 35 35 36
24 24 23 23 23 23 23 22 22 22 22 22 23 23 23 23 23 23 23 23 24 26 26 25 24 24 23 23 23 23 23 22 22 22 21 22 23 24 24 23 23 24 24 24 24 25 27 27 26 26 27 28 28 29 29 30 31 32 32 32 32 32 32 32 32 32 33 33 33 33 33 33 33 33 33 33 33 34 34 34 34 34 34 35 35 36
25 25 24 23 23 23 23 23 22 22 22 23 23 23 23 23 23 24 24 25 26 26 25 24 23 23 23 23 24 24 23 23 22 22 21 21 23 24 24 23 23 24 24 24 24 25 26 25 25 25 25 27 28 29 30 30 31 32 32 32 32 32 32 32 32 32 32 32 33 33 33 33 33 33 33 33 33 33 33 33 34 34 34 35 35 35
26 25 25 24 23 23 23 23 23 23 23 23 23 23 23 23 24 26 26 27 27 26 25 24 23 22 22 23 23 24 24 23 23 22 22 22 23 24 25 24 24 24 24 24 24 24 24 24 24 25 25 27 28 29 30 31 31 32 32 32 32 32 32 32 32 32 32 32 33 33 33 33 33 33 33 33 33 33 33 34 34 34 35 35 35 35
26 26 25 24 23 23 23 23 23 23 24 23 23 24 25 26 27 27 27 27 26 25 24 23 23 22 21 21 22 23 25 23 23 23 23 23 23 24 26 26 25 24 24 23 23 24 23 24 24 25 26 28 29 30 30 31 31 31 32 32 32 32 32 32 32 32 32 32 32 32 32 33 33 32 33 33 33 33 33 34 34 34 35 35 35 35
25 25 25 24 23 23 23 23 23 24 24 24 25 26 26 27 28 27 27 27 26 25 24 23 23 23 22 21 22 23 25 24 24 23 23 23 23 24 25 25 24 24 23 23 23 23 23 24 26 28 28 28 29 29 30 30 31 31 31 31 31 31 32 32 32 32 32 32 32 32 32 32 32 32 32 32 33 33 33 34 34 35 35 35 35 35
24 24 24 24 23 23 23 24 25 26 26 27 28 28 27 27 27 27 26 26 25 24 24 23 23 23 23 23 23 24 25 25 24 24 23 23 23 23 24 23 23 22 22 22 22 23 23 24 25 26 27 28 28 28 29 29 30 30 31 31 31 31 32 32 32 32 32 32 32 32 32 32 32 32 32 32 33 33 33 34 34 35 35 35 35 36
24 24 24 24 24 25 25 26 27 28 29 30 29 28 27 27 26 26 25 25 24 24 23 23 23 23 23 23 23 24 25 25 24 23 23 23 23 22 23 22 21 20 20 20 21 22 22 23 24 25 25 27 28 28 28 29 29 30 30 31 31 31 31 32 32 32 32 32 32 32 32 32 32 32 32 32 33 33 33 34 34 34 35 35 35 35
25 25 25 26 27 28 28 28 29 29 31 31 29 28 26 26 25 25 25 24 24 24 23 23 23 24 24 24 24 24 26 25 24 24 23 22 21 21 21 20 20 19 18 19 19 20 21 22 23 23 24 26 27 28 28 28 29 29 30 30 30 31 31 31 31 31 32 32 32 32 32 32 32 32 32 33 33 33 34 34 34 34 34 34 35 35
27 28 28 29 30 30 30 29 28 28 29 29 28 27 26 26 25 25 25 24 24 24 24 24 25 25 25 24 24 24 25 25 24 24 23 21 20 19 19 19 18 18 17 18 18 19 20 20 21 22 23 26 27 27 28 28 28 29 29 29 29 30 30 30 31 31 31 31 31 32 32 32 32 32 32 33 33 33 33 33 34 34 34 34 34 35
32 32 32 31 31 30 29 28 27 27 27 27 26 26 28 27 26 26 25 25 25 26 25 25 24 24 24 24 23 23 24 24 24 23 22 20 19 18 18 18 17 17 17 17 18 19 19 19 19 21 22 24 26 26 27 27 28 28 28 28 29 29 29 30 30 30 31 31 31 32 32 32 32 32 32 33 33 33 33 33 33 33 34 34 34 34
32 31 30 29 29 29 28 28 27 27 27 26 26 26 27 27 27 26 26 26 25 25 24 23 23 22 22 23 23 23 23 23 23 22 21 19 19 18 18 18 17 17 17 18 19 19 19 19 19 20 21 23 24 25 26 27 27 28 28 28 28 29 29 29 30 30 30 31 31 31 32 32 32 32 32 33 33 33 33 33 33 33 33 34 34 34
30 29 29 29 29 29 29 29 29 29 28 28 27 26 26 26 25 25 25 24 24 23 23 22 22 21 21 22 21 21 22 23 22 21 20 19 18 18 18 19 18 18 18 19 19 19 19 19 19 19 19 20 22 24 25 26 26 27 27 28 28 28 29 29 29 30 30 31 31 31 31 32 32 32 32 32 33 33 33 33 33 33 33 33 34 34
30 30 30 30 29 29 29 29 29 29 29 29 28 27 26 25 24 23 23 23 23 22 22 21 21 20 21 21 20 20 21 20 20 20 19 19 19 18 18 19 19 19 19 19 19 20 20 19 19 19 19 19 20 22 24 25 26 26 27 27 28 28 28 29 29 29 30 30 31 31 31 31 32 32 32 32 32 32 33 33 33 33 33 33 33 33
30 29 29 28 28 28 28 28 28 28 28 28 28 28 27 25 23 22 22 22 22 22 21 21 20 20 20 19 19 19 19 19 19 19 19 19 19 18 18 18 18 18 18 19 19 20 21 20 19 19 19 19 20 21 23 24 25 25 26 27 27 28 28 28 29 29 30 30 30 31 31 31 31 32 32 32 32 32 32 33 33 33 33 33 32 32
28 28 28 27 27 27 27 27 27 27 27 27 27 27 26 24 23 22 21 22 21 21 21 20 20 20 19 19 19 19 19 18 19 19 19 19 18 18 19 18 18 18 18 19 19 19 19 19 19 18 18 19 19 20 21 23 24 24 25 26 27 27 28 28 28 29 29 30 30 30 31 31 31 31 32 32 32 32 32 33 33 32 32 32 32 32
26 26 25 25 25 25 25 25 25 26 26 26 26 26 25 24 23 22 22 21 21 20 20 20 20 19 19 18 18 18 18 18 19 19 19 19 19 18 19 18 19 19 19 19 18 17 17 18 18 18 18 19 19 19 20 21 22 23 23 24 25 26 27 28 28 28 29 29 30 30 30 31 31 31 32 32 32 32 32 32 32 32 32 32 32 33
24 23 23 23 23 23 24 24 24 24 25 25 25 25 24 23 23 22 22 21 21 20 20 19 19 19 19 18 17 17 17 18 19 20 20 19 19 19 19 19 19 19 19 19 17 16 15 16 17 18 19 19 19 19 20 21 21 21 22 22 23 24 26 27 27 28 28 29 29 30 30 30 31 31 31 32 32 32 32 32 32 32 32 32 33 33
23 22 21 22 22 23 23 23 23 23 23 23 23 23 23 23 23 22 22 21 21 21 20 19 19 19 19 18 18 17 18 19 20 21 21 20 19 19 19 19 19 19 19 19 19 17 15 15 16 17 18 19 19 19 20 21 21 21 22 22 22 23 25 26 27 27 28 28 29 29 30 30 30 31 31 31 32 32 32 32 32 32 32 32 33 33
22 22 22 22 22 22 22 22 22 22 23 23 23 23 23 23 23 22 22 22 21 21 20 20 20 19 19 19 19 19 19 19 21 22 23 21 20 20 20 19 19 19 19 19 19 18 17 16 16 17 18 18 19 19 20 20 21 21 22 22 22 22 24 25 26 26 26 27 28 28 29 29 30 30 31 31 32 32 32 32 32 32 32 32 32 33
22 22 22 22 22 22 23 23 23 23 23 23 23 23 22 22 22 22 22 22 22 22 21 21 20 20 19 19 19 19 19 19 21 23 23 22 21 20 20 19 19 19 19 19 18 18 17 17 17 17 17 18 18 19 19 20 21 21 22 22 21 22 23 23 24 24 25 26 26 27 28 28 29 30 30 31 31 31 32 32 32 32 32 32 32 33
22 22 22 23 23 23 23 24 24 24 23 23 23 23 23 23 23 23 23 23 23 22 22 22 21 21 20 20 19 19 19 19 21 23 23 22 22 21 21 20 19 19 19 18 18 17 17 17 17 17 17 17 18 18 19 19 20 21 21 22 22 22 22 23 23 24 24 25 25 25 26 27 28 28 29 30 30 31 32 32 32 32 32 32 32 33
23 23 23 23 23 23 23 23 23 23 23 23 23 23 23 23 23 23 23 23 23 23 23 23 23 22 22 21 21 20 20 20 22 23 23 23 23 22 21 21 20 20 19 19 18 17 17 17 17 18 18 17 17 17 18 19 20 20 20 21 21 22 22 23 23 23 23 24 24 25 25 26 27 28 28 29 30 31 31 32 32 32 32 32 32 33
23 23 23 23 23 23 23 23 23 23 23 23 23 23 23 23 23 24 24 25 26 25 25 25 24 24 25 23 23 23 23 23 23 23 24 24 24 23 23 22 21 21 20 19 19 18 17 17 17 17 17 17 16 16 17 19 19 19 20 20 21 21 22 23 23 23 23 24 24 25 25 26 27 27 28 30 30 31 31 31 31 32 32 32 32 33
23 23 23 23 23 23 23 22 22 22 22 23 23 23 23 24 25 26 25 26 27 27 26 25 25 26 27 26 27 27 25 25 25 25 26 26 25 24 23 22 22 21 21 20 19 19 18 18 17 16 16 16 17 18 18 19 19 19 19 20 21 21 22 23 23 23 23 24 24 25 26 26 27 28 28 29 29 29 29 29 30 30 31 32 32 32
22 22 22 22 22 22 22 22 22 22 22 23 23 23 23 24 25 25 25 25 25 26 26 25 25 26 28 28 28 28 28 28 28 28 28 28 27 25 24 23 22 22 22 22 21 20 19 19 18 17 16 16 17 18 18 18 19 19 19 20 21 21 22 22 23 23 23 24 24 25 26 27 27 28 28 28 28 28 28 28 28 29 30 30 31 32
22 22 22 22 22 22 22 22 22 22 22 23 23 24 24 24 24 25 25 25 25 25 25 25 25 25 26 26 27 27 28 28 29 29 29 29 28 27 25 24 23 22 22 22 22 21 21 20 19 19 19 18 18 18 18 18 19 19 20 20 20 20 21 22 23 23 23 24 24 25 25 26 27 27 27 27 27 28 28 28 28 29 29 30 30 30
22 22 22 22 22 22 22 22 23 23 23 23 24 24 24 24 24 24 24 24 25 25 25 25 25 25 25 26 26 25 26 28 28 28 29 29 29 28 26 25 23 23 23 22 22 21 21 21 20 19 19 19 19 19 19 19 19 21 21 20 20 20 21 23 23 23 23 23 24 24 25 25 26 26 26 26 27 27 28 28 28 29 29 30 29 29
23 22 22 22 22 22 22 23 23 24 24 25 25 25 24 25 25 25 24 24 24 24 24 24 24 24 24 24 24 25 26 26 27 28 29 29 29 28 27 26 24 23 23 23 22 22 21 21 20 20 19 19 19 19 18 19 19 20 21 20 21 21 22 23 23 22 22 23 23 24 25 25 25 25 26 26 27 28 28 29 29 30 29 29 29 28
22 22 22 23 23 23 23 24 25 25 25 25 25 25 25 25 25 25 25 25 25 25 25 25 25 25 24 24 24 24 25 27 27 27 28 28 29 28 28 26 25 24 23 23 22 22 21 22 21 20 20 20 20 19 19 19 19 20 20 21 21 21 21 21 21 22 22 23 23 23 24 24 25 25 26 27 28 28 28 29 29 29 29 28 28 28
23 23 23 23 23 24 25 25 25 25 25 25 25 25 25 25 26 26 26 26 25 25 25 25 25 25 25 24 24 23 24 25 26 27 27 27 28 28 28 27 26 25 25 23 23 22 21 21 21 20 20 20 20 20 19 19 19 20 20 21 22 22 21 21 22 22 23 23 23 24 24 25 26 27 27 27 27 27 28 27 27 27 28 28 28 28
23 23 23 24 24 24 24 24 24 24 24 24 24 24 25 25 26 26 26 26 26 26 26 26 25 25 24 23 23 23 23 23 24 25 26 26 27 27 27 27 26 26 25 25 24 23 22 21 20 20 20 21 21 20 20 20 20 20 21 21 22 22 22 23 23 23 23 23 23 24 25 27 27 27 27 26 26 26 26 26 26 26 27 27 27 28
23 23 24 24 24 24 24 24 24 24 24 24 24 25 25 26 26 26 27 26 26 26 26 26 26 25 24 23 23 23 23 23 23 23 23 24 25 26 26 26 26 25 25 24 24 23 23 22 21 21 21 20 20 20 20 20 20 20 21 21 22 22 22 22 23 23 23 24 24 25 26 27 27 27 26 25 25 25 25 25 26 26 26 27 27 28
23 23 23 23 23 23 23 24 24 24 24 24 24 25 25 25 26 26 26 27 27 27 27 26 25 25 24 23 23 23 23 23 23 23 23 23 23 24 24 24 25 25 24 23 23 23 23 23 23 22 22 21 20 19 20 20 20 21 21 21 22 22 22 22 23 23 24 24 25 26 27 27 27 26 25 25 25 25 25 25 26 26 26 27 27 28
23 23 23 23 23 23 23 24 24 24 24 24 24 25 25 25 26 26 26 27 27 27 26 26 25 24 24 23 23 23 23 23 23 23 23 23 23 23 23 23 23 23 23 23 23 23 23 24 24 24 23 22 21 20 20 20 21 21 21 22 22 22 22 22 23 23 24 24 26 27 28 27 26 25 25 25 25 25 24 25 25 26 26 27 27 28
23 23 23 23 23 23 23 24 24 24 24 24 24 25 25 26 27 27 27 27 27 27 26 25 25 24 24 23 23 23 23 23 23 23 23 23 23 23 23 23 23 23 23 23 23 23 23 24 25 25 24 23 23 22 21 21 22 22 22 22 23 23 22 22 22 23 23 24 26 28 28 27 26 26 26 25 25 24 24 25 25 26 26 27 28 28
23 23 23 24 24 24 24 24 24 24 24 24 25 25 25 26 26 27 27 27 27 27 26 26 25 25 24 24 23 23 23 23 23 23 23 23 23 23 23 23 23 23 22 22 22 22 22 23 23 24 24 24 24 23 22 22 22 23 23 23 23 22 22 22 22 23 23 24 25 27 28 27 27 26 26 26 25 25 25 25 25 26 26 27 28 28
23 24 24 24 24 24 24 24 24 24 25 25 25 26 26 26 26 27 27 27 27 27 26 26 26 25 25 24 24 24 24 24 23 23 23 23 23 23 23 23 23 22 22 21 20 20 19 19 19 19 21 23 24 24 22 22 23 23 23 23 22 22 22 22 22 23 24 24 24 25 26 26 26 26 26 26 25 25 25 25 25 25 26 27 28 28